Location: France
(46.2276°N, 2.2137°E)
Time: 19:57:23
(UTC+02:00)

ISS - Pass Details

Date: 23 April 2026
Orbit: 414 x 424 km, 51.6° (Epoch: 12 May)

Event Time Altitude Azimuth Distance (km) Brightness Sun altitude
Exits shadow 04:44:09 34° 143° (SE) 702 -2.8 -19.4°
Maximum altitude 04:44:10 34° 143° (SE) 702 -2.7 -19.4°
Drops below altitude 10° 04:47:16 10° 76° (ENE) 1,502 -0.1 -19.0°
Sets 04:49:29 0° 67° (ENE) 2,372 1.4 -18.7°
